Regional Weather Roundup
Issued by NWS Upton, NY

Current Version | Previous Version | Text Only | Print | Product List | Glossary On
Versions: 1 2 3 4 5 6 7 8 9 10 11 12 13 14 15 16 17 18 19 20 21 22 23 24 25 26 27 28
000 ASUS41 KOKX 230708 RWROKX REGIONAL WEATHER ROUNDUP NATIONAL WEATHER SERVICE NEW YORK NY 300 AM EDT THU MAR 23 2017 NOTE: "FAIR" INDICATES FEW OR NO CLOUDS BELOW 12,000 FEET WITH NO SIGNIFICANT WEATHER AND/OR OBSTRUCTIONS TO VISIBILITY. NYZ071-072-176-178-NJZ106-104-230800- NEW YORK CITY METRO AREA CITY SKY/WX TMP DP RH WIND PRES REMARKS Central Park CLEAR 23 4 44 VRB3 30.49S Wall St Helipt SUNNY 27 10 50 W5 30.50R WCI 21 LaGuardia APRT CLEAR 26 6 42 NW10 30.48R WCI 16 Kennedy INTL CLEAR 24 3 40 NW16 30.49R WCI 11 Breezy Point N/A N/A N/A N/A NW12G21 N/A Newark/Liberty CLEAR 24 4 42 NW9 30.49S WCI 14 Teterboro CLEAR 24 7 48 NW15 30.48R WCI 11 $$ NYZ177-179-078>081-230800- LONG ISLAND NEW YORK CITY SKY/WX TMP DP RH WIND PRES REMARKS Jones Beach N/A N/A N/A N/A NW12 N/A Matinecock PT N/A N/A N/A N/A NW14G20 N/A Farmingdale CLEAR 22 2 42 NW7 30.47R WCI 13 MacArthur/ISP CLEAR 23 2 40 N15 30.44S WCI 10 Shirley CLEAR 22 2 42 NW14G22 30.45S WCI 9 Westhampton CLEAR 22 -4 32 N9G23 30.45R WCI 12 East Hampton N/A 21 -5 31 N13G20 30.43R WCI 9 Montauk N/A 23 -3 32 NW17G26 30.42R WCI 9 $$ NYZ052-065-067-230800- HUDSON VALLEY CITY SKY/WX TMP DP RH WIND PRES REMARKS White Plains CLEAR 21 3 45 NW8 30.43R WCI 11 Newburgh CLEAR 18 5 57 W12 30.45 WCI 5 Montgomery CLEAR 20 5 52 W9 30.44R WCI 9 Poughkeepsie PTCLDY 14 4 64 CALM 30.46R Albany CLEAR 16 -3 43 W3 30.47R $$ NJZ001-105-106-008-010-013-015-019>022-104-230800- NEW JERSEY CITY SKY/WX TMP DP RH WIND PRES REMARKS Newark/Liberty CLEAR 24 4 42 NW9 30.49S WCI 14 Teterboro CLEAR 24 7 48 NW15 30.48R WCI 11 Caldwell CLEAR 22 5 48 NW8 30.48S WCI 12 Somerville CLEAR 21 5 50 NW3 30.48F Linden N/A 23 4 44 CALM 30.50S Sussex CLEAR 19 5 54 NW5 30.46R WCI 12 Andover N/A 17 4 56 CALM 30.47R Trenton PTCLDY 22 3 44 NW6 30.50R WCI 14 Millville CLEAR 24 2 38 N6 30.51R WCI 17 Atlantic City PTCLDY 23 -1 35 N10 30.51R WCI 12 Wrightstown PTCLDY 22 2 42 NW7 30.48R WCI 13 Toms River PTCLDY 21 2 43 N3 30.51S Belmar PTCLDY N/A N/A N/A NW10 30.49S $$ PAZ047>061-062-071-230800- EASTERN PENNSYLVANIA CITY SKY/WX TMP DP RH WIND PRES REMARKS Philadelphia PTCLDY 25 3 38 N13 30.53S WCI 14 Allentown PTCLDY 21 4 47 NW6 30.50S WCI 13 Scranton CLEAR 19 4 51 CALM 30.46S $$ CTZ002-004>006-009-010-012-RIZ004-006-007-MAZ004-011-015-230800- SOUTHERN NEW ENGLAND IN CT CITY SKY/WX TMP DP RH WIND PRES REMARKS Bradley INTL PTCLDY 16 -4 41 NW9 30.42R WCI 4 Hartford CLEAR 20 -4 34 NW7 30.44R WCI 11 Danbury CLEAR 18 1 47 NW5 30.44R WCI 11 Wtrbury/Oxford CLEAR 18 -2 41 NW9 30.40R WCI 6 Bridgeport CLEAR 23 1 38 NW15G23 30.45R WCI 10 Meriden PTCLDY 21 -4 33 N5 30.43R WCI 15 New Haven CLEAR 22 -1 36 NW5 30.44R WCI 16 Chester N/A 19 -8 30 N9 30.40R WCI 9 Groton CLEAR 21 -6 30 N12G20 30.41R WCI 9 Wilimantic CLEAR 19 -4 36 CALM 30.42R IN RI CITY SKY/WX TMP DP RH WIND PRES REMARKS Providence CLEAR 19 -7 31 N10 30.40R WCI 7 Block Island CLEAR 20 -1 40 N15G24 30.40R WCI 6 Westerly CLEAR 21 -7 28 N12 30.41R WCI 9 IN MA CITY SKY/WX TMP DP RH WIND PRES REMARKS Boston CLEAR 18 -4 37 NW14 30.37R WCI 4 Worcester CLEAR 14 -9 35 NW16G26 30.30S WCI -2 Westfield CLEAR 19 -4 36 N12 30.40R WCI 7 Provincetown CLEAR 20 6 55 NW25G33 30.33R WCI 2 Nantucket CLEAR 20 0 41 NW25G31 30.32R WCI 2 $$ ANZ330-335-338-340-345-350-353-355-230800- COASTAL MARINE OBSERVATIONS STATION/POSITION TIME SKY/WX TEMP WIND PRES VSBY WAVE AIR SEA DIR/SP/G HT/PER (UTC) (F) (DEG/KT/KT) (MB) (MI) (FT/S) NY HARB ENTRANCE 0550 27 41 330/ 17/ 25 1031.6 4/ 5 20 S FIRE ISLAND 0550 27 41 330/ 21/ 27 1030.8 5/ 6 GREAT SOUTH BAY NOT AVBL 23 SSW MONTAUK P 0550 26 42 1029.4 6/ 5 15 E BARNEGAT LI 0630 42 N/A 5/ 6 HUDSON CANYON 0550 30 45 340/ 23/ 29 1029.8 8/ 7 KINGS POINT 0642 37 1031.8 EXECUTION ROCKS NOT AVBL CENTRAL LI SOUND 0615 25 340/ 17/ 23 N/A 3/ 4 EASTERN LI SOUND NOT AVBL ROBBINS REEF 0642 320/ 11/ 15 1032.6 $$ >>>>>>>>>>>>>>>>>>>>>>>>>>>> KEY <<<<<<<<<<<<<<<<<<<<<<<<<<< > < > SKY/WX - Sky Condition/Present Weather < > TMP - Temperature in Fahrenheit < > DP - Dew Point in Fahrenheit < > RH - Relative Humidity in Percent < > WIND - Direction (from) and Speed in MPH < > PRES - Mean Sea Level Pressure (inches of Hg) < > WCI - Wind Chill Index < > VSB - VISIBILITY IN MILES < > HX - HEAT INDEX < > TC - TEMPERATURE IN CELSIUS < > VRB - VARIABLE WIND DIRECTION < > < >>>>>>>>>>>>>>>>>>>>>>>>>>>> KEY <<<<<<<<<<<<<<<<<<<<<<<<<<<

USA.gov is the U.S. government's official web portal to all federal, state and local government web resources and services.